| time (UTC) | temp F | wind direction | speed MPH | gust MPH | rain 1hr in | rain 24hr in | rain mn in | humidity % | barometer mb |
| 20260502163005 | 63 | 359 | 6.0 | 16.0 | 0.00 | 0.00 | 0.00 | 53 | 1022.4 |
| 20260502161505 | 63 | 63 | 8.0 | 15.0 | 0.00 | 0.00 | 0.00 | 50 | 1022.4 |
| 20260502151612 | 63 | 27 | 8.0 | 14.0 | 0.00 | 0.00 | 0.00 | 49 | 1022.9 |
| 20260502150109 | 63 | 21 | 11.0 | 17.0 | 0.00 | 0.00 | 0.00 | 50 | 1023.0 |
| 20260502123051 | 62 | 63 | 12.0 | 17.0 | 0.00 | 0.00 | 0.00 | 49 | 1023.9 |
| 20260502121552 | 62 | 30 | 13.0 | 19.0 | 0.00 | 0.00 | 0.00 | 50 | 1023.9 |
| 20260502120104 | 62 | 66 | 13.0 | 19.0 | 0.00 | 0.00 | 0.00 | 50 | 1024.0 |
| 20260502114556 | 62 | 76 | 12.0 | 21.0 | 0.00 | 0.00 | 0.00 | 51 | 1024.0 |
| 20260502113048 | 62 | 99 | 8.0 | 22.0 | 0.00 | 0.00 | 0.00 | 50 | 1024.0 |
| 20260502111552 | 62 | 9 | 11.0 | 22.0 | 0.00 | 0.00 | 0.00 | 49 | 1024.1 |
| 20260502110048 | 62 | 78 | 15.0 | 22.0 | 0.00 | 0.00 | 0.00 | 50 | 1024.1 |
| 20260502104551 | 62 | 31 | 11.0 | 22.0 | 0.00 | 0.00 | 0.00 | 50 | 1024.1 |
| 20260502103047 | 62 | 54 | 13.0 | 20.0 | 0.00 | 0.00 | 0.00 | 47 | 1024.4 |
| 20260502101548 | 62 | 35 | 11.0 | 18.0 | 0.00 | 0.00 | 0.00 | 51 | 1024.4 |
| 20260502070033 | 61 | 71 | 14.0 | 25.0 | 0.00 | 0.00 | 0.00 | 50 | 1024.1 |
| 20260502064534 | 60 | 76 | 5.0 | 12.0 | 0.00 | 0.00 | 0.00 | 65 | 1024.2 |
| 20260502063030 | 59 | 52 | 7.0 | 11.0 | 0.00 | 0.00 | 0.00 | 68 | 1024.2 |
| 20260502061529 | 58 | 352 | 7.0 | 14.0 | 0.00 | 0.00 | 0.00 | 71 | 1024.2 |
| 20260502060028 | 57 | 359 | 7.0 | 12.0 | 0.00 | 0.00 | 0.00 | 72 | 1024.1 |
| 20260502054528 | 56 | 13 | 5.0 | 11.0 | 0.00 | 0.00 | 0.00 | 72 | 1024.2 |
| 20260502053027 | 55 | 13 | 5.0 | 10.0 | 0.00 | 0.00 | 0.00 | 73 | 1024.1 |
| 20260502051546 | 54 | 5 | 4.0 | 10.0 | 0.00 | 0.00 | 0.00 | 73 | 1024.1 |
| 20260502050025 | 54 | 326 | 2.0 | 6.0 | 0.00 | 0.00 | 0.00 | 73 | 1024.1 |
| 20260502044525 | 53 | 329 | 3.0 | 8.0 | 0.00 | 0.00 | 0.00 | 73 | 1024.1 |
| 20260502043023 | 52 | 343 | 3.0 | 7.0 | 0.00 | 0.00 | 0.00 | 73 | 1023.9 |
| 20260502041522 | 52 | 317 | 4.0 | 8.0 | 0.00 | 0.00 | 0.00 | 72 | 1023.9 |
| 20260502040019 | 52 | 336 | 3.0 | 6.0 | 0.00 | 0.00 | 0.00 | 71 | 1023.8 |
| 20260502034520 | 52 | 319 | 1.0 | 5.0 | 0.00 | 0.00 | 0.00 | 69 | 1023.7 |
| 20260502033016 | 56 | 270 | 0.0 | 5.0 | 0.00 | 0.00 | 0.00 | 61 | 1023.6 |
| 20260502031511 | 59 | 77 | 6.0 | 11.0 | 0.00 | 0.00 | 0.00 | 52 | 1023.5 |
| 20260502030011 | 59 | 79 | 3.0 | 7.0 | 0.00 | 0.00 | 0.00 | 53 | 1023.6 |
| 20260502024510 | 59 | 120 | 3.0 | 10.0 | 0.00 | 0.00 | 0.00 | 53 | 1023.5 |
| 20260502023010 | 59 | 164 | 3.0 | 10.0 | 0.00 | 0.00 | 0.00 | 52 | 1023.6 |
| 20260502021509 | 59 | 120 | 4.0 | 12.0 | 0.00 | 0.00 | 0.00 | 51 | 1023.6 |
| 20260502020008 | 59 | 77 | 4.0 | 16.0 | 0.00 | 0.00 | 0.00 | 51 | 1023.5 |
| 20260502014509 | 59 | 110 | 6.0 | 12.0 | 0.00 | 0.00 | 0.00 | 51 | 1023.4 |
| 20260502013005 | 59 | 131 | 5.0 | 12.0 | 0.00 | 0.00 | 0.00 | 52 | 1023.4 |
| 20260502011505 | 59 | 111 | 4.0 | 11.0 | 0.00 | 0.00 | 0.00 | 53 | 1023.4 |
| 20260502010004 | 59 | 47 | 6.0 | 11.0 | 0.00 | 0.00 | 0.00 | 53 | 1023.3 |
| 20260502004504 | 59 | 118 | 6.0 | 13.0 | 0.00 | 0.00 | 0.00 | 53 | 1023.4 |
| 20260502003005 | 59 | 104 | 8.0 | 14.0 | 0.00 | 0.00 | 0.00 | 55 | 1023.4 |
| 20260502001502 | 56 | 179 | 1.0 | 4.0 | 0.00 | 0.00 | 0.00 | 66 | 1023.6 |
| 20260502000101 | 56 | 257 | 1.0 | 3.0 | 0.00 | 0.00 | 0.00 | 66 | 1023.6 |
| 20260501234558 | 57 | 329 | 0.0 | 7.0 | 0.00 | 0.00 | 0.00 | 64 | 1023.5 |
| 20260501233058 | 58 | 202 | 4.0 | 9.0 | 0.00 | 0.00 | 0.00 | 63 | 1023.4 |
| 20260501231559 | 57 | 174 | 5.0 | 11.0 | 0.00 | 0.00 | 0.00 | 65 | 1023.4 |
| 20260501230049 | 58 | 191 | 9.0 | 13.0 | 0.00 | 0.00 | 0.00 | 64 | 1023.4 |
| 20260501224547 | 59 | 181 | 6.0 | 17.0 | 0.00 | 0.00 | 0.00 | 65 | 1023.3 |
| 20260501223043 | 61 | 148 | 10.0 | 21.0 | 0.00 | 0.00 | 0.00 | 61 | 1023.1 |
| 20260501221539 | 61 | 111 | 8.0 | 18.0 | 0.00 | 0.00 | 0.00 | 59 | 1022.8 |
| 20260501220036 | 62 | 63 | 14.0 | 24.0 | 0.00 | 0.00 | 0.00 | 61 | 1022.7 |
| 20260501214547 | 61 | 331 | 17.0 | 28.0 | 0.00 | 0.00 | 0.00 | 73 | 1022.5 |
| 20260501213037 | 60 | 23 | 22.0 | 32.0 | 0.00 | 0.00 | 0.00 | 75 | 1022.5 |
| 20260501211534 | 60 | 42 | 20.0 | 30.0 | 0.00 | 0.00 | 0.00 | 75 | 1022.6 |
| 20260501210032 | 60 | 40 | 23.0 | 33.0 | 0.00 | 0.00 | 0.00 | 73 | 1022.7 |
| 20260501204533 | 60 | 36 | 24.0 | 35.0 | 0.00 | 0.00 | 0.00 | 71 | 1022.7 |
| 20260501203031 | 60 | 12 | 22.0 | 34.0 | 0.00 | 0.00 | 0.00 | 70 | 1022.7 |
| 20260501201540 | 60 | 47 | 20.0 | 30.0 | 0.00 | 0.00 | 0.00 | 70 | 1022.9 |
| 20260501200031 | 60 | 67 | 19.0 | 30.0 | 0.00 | 0.00 | 0.00 | 68 | 1022.9 |
| 20260501194533 | 60 | 1 | 17.0 | 29.0 | 0.00 | 0.00 | 0.00 | 66 | 1022.9 |
| 20260501193032 | 60 | 28 | 15.0 | 25.0 | 0.00 | 0.00 | 0.00 | 65 | 1022.9 |
| 20260501191528 | 60 | 18 | 17.0 | 29.0 | 0.00 | 0.00 | 0.00 | 63 | 1022.9 |
| 20260501190027 | 60 | 51 | 21.0 | 33.0 | 0.00 | 0.00 | 0.00 | 63 | 1022.8 |
| 20260501184527 | 60 | 30 | 19.0 | 32.0 | 0.00 | 0.00 | 0.00 | 60 | 1022.6 |
| 20260501183027 | 60 | 49 | 16.0 | 32.0 | 0.00 | 0.00 | 0.00 | 53 | 1022.5 |
| 20260501181532 | 60 | 22 | 19.0 | 34.0 | 0.00 | 0.00 | 0.00 | 52 | 1022.3 |
| 20260501180034 | 60 | 63 | 18.0 | 29.0 | 0.00 | 0.00 | 0.00 | 52 | 1022.3 |